[[{"header":{"parameterUnit":"m.s-1","parameterCategory":1,"la1":30.2991,"la2":30.254,"lo1":-89.0895,"lo2":-89.0444,"dy":0.0017,"dx":0.0017,"nx":28,"ny":28,"refTime":"2024-12-01T03:00:00:Z","depth":0,"parameterNumber":2,"parameterNumberName":"U-component_of_WINDS"},"data":[0,0,0,0,0,0,0,0,0,0,0,0,0,0,0,0,0,0,0,0,0,0,0,0,0,0,0,0,0,0,0,0,0,0,0,0,0,0,0,0,0,0,0,0,0,0,0,0,0,0,0,0,0,0,0,0,0,0,-2.1387,-2.1387,0,-2.1437,-2.1438,-2.1438,-2.1338,-2.1335,-2.1332,-2.1329,-2.1383,-2.1387,-2.1392,0,0,0,0,0,0,0,0,0,0,0,0,0,-2.1205,-2.1208,-2.1387,-2.1387,-2.1388,-2.1437,-2.1438,-2.1439,-2.1339,-2.1335,-2.1331,-2.1327,-2.1381,-2.1387,-2.1392,0,0,0,0,0,0,0,0,0,0,0,0,0,-2.1272,-2.121,-2.1387,-2.1344,-2.1341,-2.1437,-2.1438,-2.1439,-2.134,-2.1335,-2.133,-2.1325,-2.138,-2.1386,-2.1393,-2.1534,0,0,-2.1414,-2.1417,0,0,0,0,0,0,0,0,-2.1269,-2.1279,-2.135,-2.1347,-2.1344,-2.1376,-2.1393,-2.1471,-2.1341,-2.134,-2.1329,-2.1323,-2.1385,-2.1391,-2.1411,-2.1536,-2.1538,-2.1414,-2.1418,-2.1421,-2.1423,0,0,0,0,0,0,0,-2.1264,-2.1276,-2.1407,-2.1351,-2.1347,-2.1323,-2.1327,-2.1408,-2.139,-2.134,-2.1333,-2.134,-2.1382,-2.1405,-2.1412,-2.1539,-2.1414,-2.142,-2.1424,-2.1427,-2.1779,-2.1784,0,0,0,0,0,0,-2.1265,-2.1273,-2.1405,-2.1408,-2.1293,-2.133,-2.1335,-2.1371,-2.1389,-2.1386,-2.1344,-2.1335,-2.1396,-2.1404,-2.1413,-2.1578,-2.1421,-2.1428,-2.1431,-2.1774,-2.1781,-2.1786,0,0,0,0,0,0,-2.1261,-2.1277,-2.1403,-2.1339,-2.1353,-2.1338,-2.138,-2.1375,-2.1397,-2.1392,-2.1388,-2.1371,-2.1392,-2.1404,-2.1504,-2.1578,-2.1431,-2.1437,-2.1768,-2.1776,-2.1783,-2.1909,0,0,0,0,0,0,-2.1256,-2.1277,-2.133,-2.1341,-2.1357,-2.1493,-2.1385,-2.1379,-2.1409,-2.1397,-2.1416,-2.1414,-2.1389,-2.1494,-2.151,-2.1585,-2.1442,-2.1761,-2.1772,-2.1781,-2.1898,-2.192,-2.1939,0,0,0,0,0,-2.125,-2.1365,-2.1333,-2.135,-2.1423,-2.1498,-2.1507,-2.1475,-2.1415,-2.1469,-2.1465,-2.1413,-2.1567,-2.1505,-2.1523,-2.1601,-2.1756,-2.1769,-2.178,-2.1889,-2.1916,-2.1939,0,0,0,0,0,0,-2.1365,-2.1365,-2.1331,-2.1452,-2.1475,-2.1481,-2.1547,-2.1505,-2.1547,-2.1535,-2.1495,-2.15,-2.1607,-2.1614,-2.1544,-2.1736,-2.1652,-2.1668,-2.1728,-2.1754,-2.1774,-2.1771,-2.1448,0,0,0,0,0,-2.1404,-2.1464,-2.1461,-2.1568,-2.1582,-2.1563,-2.1594,-2.1567,-2.159,-2.16,-2.1603,-2.1628,-2.1681,-2.1718,-2.1767,-2.1898,-2.19,-2.196,-2.198,-2.1997,-2.2012,-2.208,-2.2106,-2.1825,-2.1825,-2.1825,0,0,-2.1486,-2.1493,-2.1534,-2.1591,-2.1606,-2.1669,-2.1572,-2.1643,-2.1689,-2.1611,-2.1705,-2.1708,-2.1733,-2.1848,-2.19,-2.1857,-2.2089,-2.2013,-2.2026,-2.2031,-2.2095,-2.2121,-2.2145,-2.1834,-2.1832,-2.1831,0,0,-2.1667,-2.168,-2.1769,-2.1785,-2.1809,-2.1795,-2.1816,-2.1827,-2.1826,-2.1919,-2.1861,-2.1916,-2.2009,-2.2029,-2.2051,-2.2237,-2.2191,-2.2254,-2.2361,-2.2428,-2.245,-2.2469,-2.2535,-2.2559,-2.2268,-2.2268,-2.2269,0,-2.1767,-2.1859,-2.1821,-2.1895,-2.1922,-2.1852,-2.1942,-2.196,-2.1999,-2.2019,-2.197,-2.2084,-2.2096,-2.2215,-2.226,-2.228,-2.2303,-2.2252,-2.245,-2.2469,-2.2486,-2.2548,-2.2573,-2.2276,-2.2275,-2.2274,-2.2274,0,-2.1979,-2.2044,-2.2113,-2.2151,-2.2185,-2.2267,-2.2241,-2.228,-2.225,-2.2241,-2.2336,-2.2348,-2.2397,-2.2423,-2.2395,-2.2537,-2.2509,-2.2456,-2.237,-2.2521,-2.2579,-2.2602,-2.2287,-2.2284,-2.2282,-2.228,0,0,-2.2237,-2.2249,-2.2276,-2.2291,-2.231,-2.2359,-2.2437,-2.2484,-2.2518,-2.2546,-2.2611,-2.269,-2.264,-2.2665,-2.2638,-2.2697,-2.2842,-2.2636,-2.2636,-2.2673,-2.2997,-2.3037,-2.3065,-2.2811,-2.2815,-2.2818,-2.2994,0,-2.2416,-2.255,-2.2517,-2.2649,-2.2708,-2.2641,-2.2709,-2.2728,-2.2721,-2.2769,-2.2762,-2.2818,-2.2749,-2.2763,-2.2818,-2.2813,-2.2906,-2.2799,-2.287,-2.2873,-2.2866,-2.3095,-2.3138,-2.3304,-2.3017,-2.3021,-2.3023,0,-2.2643,-2.2678,-2.2817,-2.2824,-2.2847,-2.2909,-2.2948,-2.2995,-2.3014,-2.3005,-2.3032,-2.2993,-2.3069,-2.2982,-2.3087,-2.3015,-2.3041,-2.3043,-2.3048,-2.3054,-2.2958,-2.3106,-2.3356,-2.3381,-2.3058,-2.3056,-2.3053,0,-2.2816,-2.2898,-2.2991,-2.3006,-2.3017,-2.3061,-2.3068,-2.3083,-2.3112,-2.3146,-2.3164,-2.3208,-2.3232,-2.3266,-2.3239,-2.3178,-2.3347,-2.3258,-2.3341,-2.3342,-2.3381,-2.3379,-2.3638,-2.3398,-2.3398,-2.3398,-2.3397,0,-2.302,-2.3107,-2.3068,-2.3125,-2.322,-2.3181,-2.3276,-2.3275,-2.3288,-2.3343,-2.3288,-2.3342,-2.3303,-2.3353,-2.3332,-2.3421,-2.3432,-2.3427,-2.342,-2.3432,-2.3432,-2.3449,-2.3437,-2.3404,-2.3403,-2.3401,-2.34,0,-2.323,-2.3207,-2.3304,-2.3305,-2.3307,-2.3377,-2.3378,-2.3431,-2.3419,-2.349,-2.3504,-2.3486,-2.3541,-2.3517,-2.3576,-2.3562,-2.3676,-2.3654,-2.3669,-2.3663,-2.3747,-2.374,-2.4026,-2.4061,-2.38,-2.3802,-2.3805,0,-2.3361,-2.3426,-2.3434,-2.3466,-2.3476,-2.353,-2.3559,-2.3522,-2.3555,-2.358,-2.363,-2.368,-2.3718,-2.3809,-2.3801,-2.3846,-2.3824,-2.3922,-2.3831,-2.3839,-2.3825,-2.3821,-2.3827,-2.394,-2.3943,-2.3946,-2.3948,0,-2.3597,-2.3582,-2.3625,-2.3665,-2.37,-2.373,-2.3755,-2.3785,-2.3748,-2.3788,-2.3843,-2.3872,-2.3931,-2.3981,-2.402,-2.4026,-2.3981,-2.3976,-2.3997,-2.401,-2.4015,-2.4012,-2.3718,-2.397,-2.3968,-2.3966,-2.3965,-2.3964,-2.3771,-2.3825,-2.3838,-2.3888,-2.3902,-2.3926,-2.3974,-2.3967,-2.4012,-2.4056,-2.4032,-2.4096,-2.4111,-2.4158,-2.417,-2.422,-2.4181,-2.4213,-2.4221,-2.4229,-2.4239,-2.4007,-2.4227,-2.4226,-2.4225,-2.4225,-2.4224,0,-2.4003,-2.4007,-2.4053,-2.4089,-2.4127,-2.408,-2.4104,-2.414,-2.4196,-2.4214,-2.4252,-2.4314,-2.4362,-2.4357,-2.44,-2.4441,-2.4421,-2.4453,-2.445,-2.4452,-2.4272,-2.4248,-2.4468,-2.4468,-2.4468,-2.4468,-2.4468,-2.4468,-2.4128,-2.4216,-2.4202,-2.4296,-2.4299,-2.4361,-2.4379,-2.44,-2.4413,-2.4485,-2.4524,-2.452,-2.4528,-2.4571,-2.4612,-2.4609,-2.4627,-2.4667,-2.4657,-2.4489,-2.4465,-2.4442,-2.442,-2.4672,-2.4672,-2.4833,-2.4834,-2.4835]},{"header":{"parameterUnit":"m.s-1","parameterCategory":1,"la1":30.2991,"la2":30.254,"lo1":-89.0895,"lo2":-89.0444,"dy":0.0017,"dx":0.0017,"nx":28,"ny":28,"refTime":"2024-12-01T03:00:00:Z","depth":0,"parameterNumber":3,"parameterNumberName":"V-component_of_WINDS"},"data":[0,0,0,0,0,0,0,0,0,0,0,0,0,0,0,0,0,0,0,0,0,0,0,0,0,0,0,0,0,0,0,0,0,0,0,0,0,0,0,0,0,0,0,0,0,0,0,0,0,0,0,0,0,0,0,0,0,0,-3.3665,-3.3666,0,-3.3719,-3.3719,-3.372,-3.3668,-3.3666,-3.3664,-3.3662,-3.3713,-3.3717,-3.372,0,0,0,0,0,0,0,0,0,0,0,0,0,-3.3515,-3.3518,-3.3665,-3.3666,-3.3667,-3.3718,-3.3719,-3.372,-3.3668,-3.3666,-3.3663,-3.3661,-3.3712,-3.3716,-3.372,0,0,0,0,0,0,0,0,0,0,0,0,0,-3.3575,-3.3519,-3.3665,-3.3647,-3.3646,-3.3718,-3.3719,-3.372,-3.3669,-3.3666,-3.3662,-3.366,-3.3711,-3.3716,-3.3721,-3.3813,0,0,-3.3736,-3.3738,0,0,0,0,0,0,0,0,-3.3572,-3.3581,-3.3649,-3.3648,-3.3647,-3.3683,-3.3685,-3.3751,-3.3669,-3.366,-3.3662,-3.3658,-3.3706,-3.3711,-3.3728,-3.3815,-3.3817,-3.3736,-3.3739,-3.3741,-3.3743,0,0,0,0,0,0,0,-3.3568,-3.3578,-3.3686,-3.365,-3.3649,-3.3635,-3.364,-3.3697,-3.3699,-3.3661,-3.3657,-3.3664,-3.3705,-3.3723,-3.3728,-3.3818,-3.3736,-3.374,-3.3743,-3.3745,-3.3982,-3.3985,0,0,0,0,0,0,-3.3566,-3.3575,-3.3684,-3.3688,-3.3601,-3.364,-3.3646,-3.3675,-3.3699,-3.3699,-3.3667,-3.3661,-3.3716,-3.3723,-3.373,-3.3838,-3.3741,-3.3746,-3.3749,-3.3978,-3.3982,-3.3986,0,0,0,0,0,0,-3.3563,-3.3576,-3.3682,-3.3631,-3.3643,-3.3646,-3.3679,-3.3678,-3.3696,-3.3703,-3.3703,-3.3685,-3.3714,-3.3723,-3.3792,-3.3839,-3.3748,-3.3753,-3.3974,-3.3979,-3.3984,-3.4055,0,0,0,0,0,0,-3.3559,-3.3576,-3.3612,-3.3632,-3.3646,-3.3745,-3.3682,-3.3681,-3.3705,-3.3698,-3.3721,-3.3721,-3.3712,-3.3785,-3.3797,-3.3844,-3.3756,-3.397,-3.3977,-3.3982,-3.4049,-3.4062,-3.4074,0,0,0,0,0,-3.3554,-3.3629,-3.3614,-3.3627,-3.3691,-3.3748,-3.3756,-3.3745,-3.3709,-3.3744,-3.3749,-3.3721,-3.3832,-3.3793,-3.3806,-3.3855,-3.3967,-3.3975,-3.3982,-3.4043,-3.406,-3.4073,0,0,0,0,0,0,-3.3614,-3.3632,-3.3615,-3.3699,-3.3723,-3.3739,-3.3784,-3.3763,-3.3796,-3.3789,-3.3772,-3.3778,-3.3851,-3.386,-3.3815,-3.3944,-3.3894,-3.3904,-3.3936,-3.3951,-3.3963,-3.3959,-3.3761,0,0,0,0,0,-3.3637,-3.3683,-3.3695,-3.3769,-3.3781,-3.3781,-3.3805,-3.3794,-3.3817,-3.3827,-3.3836,-3.3859,-3.3899,-3.3926,-3.3963,-3.405,-3.4053,-3.409,-3.4102,-3.4112,-3.4121,-3.4166,-3.4182,-3.401,-3.401,-3.401,0,0,-3.3685,-3.3701,-3.373,-3.3781,-3.3798,-3.3844,-3.3789,-3.3841,-3.3875,-3.3834,-3.39,-3.3908,-3.3932,-3.401,-3.4045,-3.402,-3.417,-3.4122,-3.413,-3.4133,-3.4176,-3.4192,-3.4206,-3.4015,-3.4014,-3.4014,0,0,-3.3797,-3.3814,-3.3876,-3.3894,-3.392,-3.3919,-3.3934,-3.3954,-3.3957,-3.4023,-3.3994,-3.4033,-3.4103,-3.412,-3.4139,-3.4255,-3.423,-3.4268,-3.4332,-3.4376,-3.439,-3.4402,-3.4442,-3.4457,-3.4277,-3.4277,-3.4277,0,-3.3853,-3.3923,-3.391,-3.3964,-3.3986,-3.3952,-3.4014,-3.4032,-3.4069,-3.4085,-3.4056,-3.4142,-3.4156,-3.4237,-3.4265,-3.4282,-3.4297,-3.4265,-3.4389,-3.4401,-3.4412,-3.445,-3.4465,-3.4282,-3.4281,-3.4281,-3.428,0,-3.399,-3.4038,-3.4085,-3.4122,-3.415,-3.4208,-3.4202,-3.4232,-3.4218,-3.422,-3.4286,-3.4302,-3.4341,-3.4359,-3.4347,-3.4438,-3.4422,-3.4392,-3.434,-3.4433,-3.4468,-3.4483,-3.4288,-3.4286,-3.4285,-3.4284,0,0,-3.4141,-3.4169,-3.4187,-3.4202,-3.4229,-3.4265,-3.4321,-3.4359,-3.4384,-3.4411,-3.4455,-3.4515,-3.4486,-3.4507,-3.4496,-3.4535,-3.4625,-3.45,-3.45,-3.4521,-3.4725,-3.4746,-3.4764,-3.4608,-3.4611,-3.4613,-3.4722,0,-3.4252,-3.4349,-3.4338,-3.443,-3.4474,-3.4442,-3.449,-3.451,-3.4513,-3.4549,-3.4551,-3.4593,-3.4553,-3.4565,-3.4603,-3.4606,-3.4665,-3.4598,-3.4648,-3.465,-3.4642,-3.4782,-3.4806,-3.4908,-3.4736,-3.4738,-3.474,0,-3.4394,-3.4426,-3.4523,-3.4541,-3.4559,-3.4602,-3.4636,-3.4672,-3.4693,-3.4692,-3.4715,-3.4697,-3.4751,-3.4699,-3.4772,-3.4727,-3.4746,-3.4751,-3.4755,-3.4758,-3.47,-3.4789,-3.4941,-3.4955,-3.4762,-3.476,-3.4759,0,-3.4493,-3.456,-3.4626,-3.464,-3.4664,-3.4694,-3.4705,-3.4724,-3.4748,-3.4777,-3.4792,-3.4827,-3.4846,-3.4873,-3.4864,-3.4827,-3.4938,-3.4886,-3.4938,-3.4938,-3.4962,-3.496,-3.5118,-3.4977,-3.4976,-3.4976,-3.4976,0,-3.4618,-3.4678,-3.467,-3.4711,-3.4776,-3.4763,-3.4828,-3.4835,-3.4851,-3.4891,-3.4866,-3.4903,-3.489,-3.4927,-3.492,-3.498,-3.4989,-3.4989,-3.4986,-3.4991,-3.4991,-3.5003,-3.4995,-3.498,-3.4979,-3.4978,-3.4978,0,-3.4739,-3.4737,-3.4806,-3.4822,-3.4828,-3.4875,-3.4888,-3.4925,-3.4925,-3.4976,-3.4987,-3.4987,-3.5029,-3.5023,-3.5069,-3.5065,-3.514,-3.5129,-3.5133,-3.513,-3.5181,-3.5176,-3.5351,-3.5373,-3.5219,-3.522,-3.5221,0,-3.4818,-3.4863,-3.4884,-3.491,-3.4923,-3.4964,-3.4988,-3.4976,-3.5002,-3.503,-3.5063,-3.5103,-3.5134,-3.5201,-3.5205,-3.5239,-3.5228,-3.5288,-3.5233,-3.5236,-3.5228,-3.5225,-3.5228,-3.5298,-3.53,-3.5301,-3.5302,0,-3.4959,-3.4955,-3.4991,-3.5027,-3.5056,-3.5083,-3.5107,-3.5129,-3.512,-3.515,-3.5192,-3.5216,-3.5263,-3.5302,-3.5335,-3.5344,-3.5321,-3.5319,-3.5333,-3.5337,-3.5337,-3.5337,-3.5161,-3.5315,-3.5314,-3.5313,-3.5312,-3.5312,-3.506,-3.5099,-3.5119,-3.5159,-3.5177,-3.52,-3.5235,-3.524,-3.5275,-3.5313,-3.5304,-3.5352,-3.5371,-3.5412,-3.5425,-3.5461,-3.5439,-3.5459,-3.5464,-3.5469,-3.5474,-3.5332,-3.5467,-3.5467,-3.5466,-3.5466,-3.5466,0,-3.5198,-3.521,-3.5247,-3.5282,-3.5314,-3.529,-3.5316,-3.5343,-3.5386,-3.5406,-3.5437,-3.5485,-3.5522,-3.5528,-3.5563,-3.5591,-3.5581,-3.56,-3.5598,-3.56,-3.5493,-3.5477,-3.5608,-3.5608,-3.5608,-3.5608,-3.5608,-3.5608,-3.5274,-3.5337,-3.5335,-3.5406,-3.5416,-3.5464,-3.548,-3.55,-3.5516,-3.5571,-3.5602,-3.5606,-3.562,-3.5656,-3.5689,-3.5689,-3.5703,-3.5726,-3.5722,-3.5622,-3.5608,-3.5594,-3.5579,-3.5729,-3.5729,-3.5826,-3.5827,-3.5828]}]]